GW0118 Weather Reports


time (UTC)temp
F
wind
direction
speed
knots
gust
knots
rain 1hr
in
rain 24hr
in
rain mn
in
humidity
%
barometer
mb
20260901203110 71 106 1.7 4.3 0.00 0.00 0.00 39 1023.0
20260901201612 73 0 0.0 0.0 0.00 0.00 0.00 39 1022.7
20260901200108 75 0 0.0 0.0 0.00 0.00 0.00 34 1022.6
20260901194608 76 147 0.0 0.9 0.00 0.00 0.00 33 1022.3
20260901193106 78 214 0.0 3.5 0.00 0.00 0.00 31 1022.0
20260901191605 79 243 0.9 2.6 0.00 0.00 0.00 31 1021.8
20260901190110 80 184 0.0 3.5 0.00 0.00 0.00 30 1021.6
20260901184601 81 235 0.9 4.3 0.00 0.00 0.00 29 1021.5
20260901183110 83 265 0.9 4.3 0.00 0.00 0.00 27 1021.3
20260901181605 83 248 2.6 6.1 0.00 0.00 0.00 26 1021.4
20260901180107 83 240 2.6 9.6 0.00 0.00 0.00 26 1021.4
20260901174604 83 347 5.2 10.4 0.00 0.00 0.00 25 1021.5
20260901173112 84 298 7.0 11.3 0.00 0.00 0.00 25 1021.4
20260901171620 84 275 5.2 13.0 0.00 0.00 0.00 25 1021.3
20260901170108 85 265 7.8 18.2 0.00 0.00 0.00 26 1021.2
20260901164635 86 257 7.0 13.9 0.00 0.00 0.00 26 1021.1
20260901163103 86 277 7.8 13.0 0.00 0.00 0.00 27 1021.1
20260901161608 87 264 7.0 14.8 0.00 0.00 0.00 26 1021.1
20260901160106 87 270 5.2 17.4 0.00 0.00 0.00 26 1021.0
20260901154605 86 288 7.8 14.8 0.00 0.00 0.00 28 1021.0
20260901153103 86 262 8.7 15.6 0.00 0.00 0.00 28 1021.1
20260901151605 86 247 4.3 14.8 0.00 0.00 0.00 29 1021.1
20260901150108 87 202 3.5 13.0 0.00 0.00 0.00 28 1021.1
20260901144606 86 267 5.2 12.2 0.00 0.00 0.00 30 1021.3
20260901143106 86 277 6.1 14.8 0.00 0.00 0.00 28 1021.4
20260901141610 86 199 7.0 15.6 0.00 0.00 0.00 29 1021.4
20260901140105 85 250 6.1 15.6 0.00 0.00 0.00 31 1021.5
20260901134604 85 199 9.6 14.8 0.00 0.00 0.00 31 1021.5
20260901133103 85 276 7.8 15.6 0.00 0.00 0.00 30 1021.7
20260901131608 85 246 6.1 14.8 0.00 0.00 0.00 30 1022.0
20260901124604 84 302 8.7 13.9 0.00 0.00 0.00 33 1021.9
20260901123102 83 186 8.7 15.6 0.00 0.00 0.00 34 1022.0
20260901121613 84 272 4.3 12.2 0.00 0.00 0.00 34 1022.2
20260901120124 82 107 3.5 12.2 0.00 0.00 0.00 41 1022.4
20260901114605 82 221 4.3 12.2 0.00 0.00 0.00 39 1022.6
20260901113105 82 268 3.5 13.0 0.00 0.00 0.00 40 1022.6
20260901111613 80 211 4.3 9.6 0.00 0.00 0.00 43 1022.8
20260901110106 80 285 4.3 9.6 0.00 0.00 0.00 44 1022.9
20260901104602 79 260 4.3 7.8 0.00 0.00 0.00 46 1023.1
20260901103124 78 229 2.6 8.7 0.00 0.00 0.00 47 1023.1
20260901101605 76 229 3.5 9.6 0.00 0.00 0.00 53 1023.2
20260901100107 76 244 2.6 7.8 0.00 0.00 0.00 54 1023.3
20260901094605 75 190 2.6 7.0 0.00 0.00 0.00 55 1023.4
20260901093132 73 214 3.5 7.8 0.00 0.00 0.00 58 1023.3
20260901091619 73 234 2.6 7.8 0.00 0.00 0.00 60 1023.3
20260901090108 72 231 3.5 7.0 0.00 0.00 0.00 61 1023.2
20260901084601 71 266 2.6 9.6 0.00 0.00 0.00 62 1023.1
20260901083109 71 264 1.7 6.1 0.00 0.00 0.00 63 1023.0
20260901081616 69 250 1.7 4.3 0.00 0.00 0.00 64 1022.9
20260901080123 68 331 0.0 0.9 0.00 0.00 0.00 62 1022.9
20260901074612 66 0 0.0 0.9 0.00 0.00 0.00 65 1022.9
20260901073115 63 64 0.9 2.6 0.00 0.00 0.00 68 1023.0
20260901071610 63 35 0.0 0.9 0.00 0.00 0.00 66 1023.2
20260901070107 62 0 0.0 0.9 0.00 0.00 0.00 68 1023.1
20260901064608 59 0 0.0 1.7 0.00 0.00 0.00 72 1023.0
20260901063106 59 0 0.0 0.0 0.00 0.00 0.00 70 1023.0
20260901061607 58 0 0.0 0.0 0.00 0.00 0.00 72 1022.9
20260901060111 57 0 0.0 0.0 0.00 0.00 0.00 74 1022.8
20260901054607 57 0 0.0 0.0 0.00 0.00 0.00 73 1022.5
20260901053124 57 0 0.0 0.0 0.00 0.00 0.00 73 1022.4
20260901051605 57 0 0.0 0.0 0.00 0.00 0.00 72 1022.4
20260901044605 59 0 0.0 0.0 0.00 0.00 0.00 71 1022.1
20260901043130 59 0 0.0 0.0 0.00 0.00 0.00 70 1022.1
20260901041611 59 0 0.0 0.0 0.00 0.00 0.00 69 1022.0
20260901040105 60 0 0.0 0.0 0.00 0.00 0.00 69 1022.0
20260901034608 61 0 0.0 0.9 0.00 0.00 0.00 68 1022.0
20260901033108 61 124 0.9 2.6 0.00 0.00 0.00 67 1022.1
20260901031605 61 0 0.0 2.6 0.00 0.00 0.00 67 1022.3
20260901030104 62 123 0.9 1.7 0.00 0.00 0.00 66 1022.2
20260901024608 62 122 0.0 1.7 0.00 0.00 0.00 65 1022.3
20260901023103 62 108 0.0 0.9 0.00 0.00 0.00 64 1022.4
20260901021609 63 0 0.0 1.7 0.00 0.00 0.00 64 1022.4
20260901020113 63 108 0.9 2.6 0.00 0.00 0.00 63 1022.3
20260901014606 64 0 0.0 0.9 0.00 0.00 0.00 62 1022.4
20260901013103 65 49 0.9 2.6 0.00 0.00 0.00 61 1022.4
20260901011621 65 89 0.9 6.1 0.00 0.00 0.00 60 1022.3
20260901010103 65 103 3.5 6.1 0.00 0.00 0.00 60 1022.4
20260901004605 65 84 0.9 5.2 0.00 0.00 0.00 60 1022.6
20260901003107 65 121 1.7 6.1 0.00 0.00 0.00 59 1022.6
20260901001607 66 59 3.5 8.7 0.00 0.00 0.00 59 1022.7
20260901000114 66 109 5.2 8.7 0.00 0.00 0.00 58 1022.8
20260831234618 66 85 4.3 9.6 0.00 0.00 0.00 58 1022.8
20260831233108 66 52 4.3 7.8 0.00 0.00 0.00 57 1022.8
20260831231610 67 89 5.2 8.7 0.00 0.00 0.00 57 1022.7
20260831230109 67 62 5.2 10.4 0.00 0.00 0.00 56 1022.6
20260831224603 67 41 4.3 8.7 0.00 0.00 0.00 56 1022.6
20260831223111 67 91 5.2 8.7 0.00 0.00 0.00 55 1022.7
20260831221612 68 79 6.1 9.6 0.00 0.00 0.00 55 1022.7
20260831220133 68 85 4.3 7.8 0.00 0.00 0.00 54 1022.6
20260831214606 69 50 5.2 9.6 0.00 0.00 0.00 53 1022.6
20260831213110 69 74 3.5 7.0 0.00 0.00 0.00 53 1022.7
20260831211608 69 68 3.5 7.0 0.00 0.00 0.00 52 1022.5
20260831210106 70 115 3.5 6.1 0.00 0.00 0.00 52 1022.6
20260831204605 70 0 0.9 6.1 0.00 0.00 0.00 51 1022.5